MONITOR-4 (RS57S)

Last updated on Wed Sep 09 2026 00:03:15 GMT+0000 (Coordinated Universal Time)

1 57182U 23091S 26251.57085350 .00010464 00000+0 36915-3 0 9998 2 57182 97.5006 315.6561 0011812 158.5061 201.6678 15.29375934177034
UTC large
Height (km)
Speed (km/s)
/
Latitude / Longitude
Inclination (degrees)
Orbital Period (minutes)
Azimuth
Elevation
Range (km)
Doppler Factor

Next 0 passes for location: London (51.5072 / 0.1276)

No passes found over London.
MONITOR-4 (RS57S)